Retour au catalogue

STARLINK-31952

ActifCommunicationsVLEO
NORAD 59867·PAYLOAD·🇺🇸 United States

Lancé May 24, 2024 depuis Cape Canaveral Space Force Station

Loading…

Prochains Passages (prochaines 24 heures)

TLE

FraisSource: CelesTrak SupGP

Époque: Sep 14, 2026, 13:35 UTC

1 59867C 24098K   26257.56645833  .00057046  00000+0  20666-2 0  2570
2 59867  43.0004 291.4651 0001274 275.5183 340.4352 15.27543871    16

Suivez STARLINK-31952 en temps réel avec AllMySat

Download on the App Store